Regional Weather Roundup
Issued by NWS Kansas City/Pleasant Hill, MO

Home | Current Version | Previous Version | Text Only | Print | Product List | Glossary On
Versions: 1 2 3 4 5 6 7 8 9 10 11 12 13 14 15 16 17 18 19 20 21 22 23 24 25 26 27 28 29 30 31 32 33 34 35 36 37 38 39 40 41 42 43 44 45 46 47 48 49 50
000
ASUS43 KEAX 070310
RWREAX

WEATHER ROUNDUP FOR EASTERN KANSAS AND NORTHWEST MISSOURI
NATIONAL WEATHER SERVICE KANSAS CITY/PLEASANT HILL MO
900 PM CST SAT FEB 06 2016

KSZ040-057-103>105-MOZ028-029-037-043-070400-
...KANSAS CITY METROPOLITAN AREA...

CITY           SKY/WX    TMP DP  RH WIND       PRES   REMARKS
K.C. INTL      PTCLDY    39  29  67 S13       30.11F WCI  31
K.C. DOWNTOWN  CLEAR     41  28  60 S8        30.12F
LEES SUMMIT    PTCLDY    41  28  60 SW12      30.13F WCI  34
OLATHE - IXD   CLOUDY    40  27  59 S13       30.14F WCI  32
OLATHE - OJC   PTCLDY    38  27  64 SW7       30.14S WCI  33
LAWRENCE       PTCLDY    40  27  59 SW10      30.13F WCI  33

$$

MOZ001>008-011>017-020>025-030>033-038>040-044>046-053-054-070400-
...NORTHERN AND CENTRAL MISSOURI...

CITY           SKY/WX    TMP DP  RH WIND       PRES   REMARKS
ST. JOSEPH     MOCLDY    39  28  64 SW10      30.08F WCI  32
MOSBY          CLOUDY    39  30  70 S6        30.12F WCI  35
WARRENSBURG    MOCLDY    37  30  75 S7        30.15F WCI  32
WHITEMAN AFB   CLEAR     35  28  76 SW12      30.14F WCI  27
CLINTON          N/A     39  30  70 S6        30.18F WCI  35
SEDALIA        CLEAR     40  27  59 SW8       30.17F WCI  34
WARSAW         NOT AVBL
CHILLICOTHE      N/A     39  29  67 S7        30.11F WCI  34
KIRKSVILLE     CLOUDY    37  29  72 S9        30.10F WCI  30

$$

MOZ041-047>049-056>058-063>065-088>090-097-070400-
...EASTERN AND SOUTHERN MISSOURI...

CITY           SKY/WX    TMP DP  RH WIND       PRES   REMARKS
ST. LOUIS INTL PTCLDY    43  26  51 SW5       30.18F
SPIRIT OF STL  CLEAR     34  28  79 CALM      30.18F
COLUMBIA       CLEAR     38  26  62 SW8       30.17S WCI  32
JEFFERSON CITY CLEAR     39  27  62 CALM      30.18F
ROLLA          LGT RAIN  39  25  57 SW6       30.17F WCI  35
OSAGE BEACH    CLEAR     43  27  52 SW6       30.20S
SPRINGFIELD    CLEAR     38  26  62 SW7       30.21S WCI  33
BRANSON        PTCLDY    43  23  45 CALM      30.24F
JOPLIN         CLEAR     36  27  69 S8        30.22F WCI  30
WEST PLAINS    CLEAR     42  15  33 S6        30.23F

$$

IAZ060-094-KSZ022-034>040-054-083-096-NEZ052-066-093-070400-
...KANSAS...SOUTHEAST NEBRASKA AND IOWA...

CITY           SKY/WX    TMP DP  RH WIND       PRES   REMARKS
TOPEKA         CLEAR     40  26  57 S9        30.11F WCI  34
MANHATTAN      CLOUDY    41  27  57 SW14      30.07F WCI  33
EMPORIA        PTCLDY    36  26  67 S14       30.14F WCI  27
CHANUTE        CLEAR     35  27  72 SW8       30.20F WCI  29
WICHITA        PTCLDY    38  27  64 S12       30.16F WCI  30
OMAHA          MOCLDY    39  26  59 S9        29.97F WCI  33
LINCOLN        PTCLDY    37  27  67 SW8       30.00S WCI  31
FALLS CITY     CLOUDY    39  27  62 S14       30.04F WCI  31
LAMONI         PTCLDY    37  29  72 S12       30.03F WCI  29
DES MOINES     PTCLDY    36  29  75 S9        30.00F WCI  29

$$




USA.gov is the U.S. government's official web portal to all federal, state and local government web resources and services.